Regional Weather Roundup
Issued by NWS

Home | Current Version | Previous Version | Graphics & Text | Print | Product List | Glossary On
Versions: 1 2 3 4 5 6 7 8 9 10 11 12 13 14 15 16 17 18 19 20 21 22 23 24 25 26 27 28 29 30 31 32 33 34 35 36 37 38 39 40 41 42 43 44 45 46 47 48 49 50
000
ASUS43 KDTX 251810
RWRMI
MICHIGAN HOURLY REGIONAL WEATHER ROUNDUP
NATIONAL WEATHER SERVICE DETROIT/PONTIAC MI
200 PM EDT WED MAY 25 2016

NOTE: "FAIR" INDICATES FEW OR NO CLOUDS BELOW 12,000 FEET WITH NO
SIGNIFICANT WEATHER AND/OR OBSTRUCTION TO VISIBILITY.

MIZ047>049-052>055-059>063-066>070-074>076-081>083-251900-
SOUTHEAST LOWER MICHIGAN

CITY           SKY/WX    TMP DP  RH WIND       PRES   REMARKS
ADRIAN         CLOUDY    82  57  42 SW16      30.06F
6HR MIN TEMP:  63; 6HR MAX TEMP:  84;

ALMA           MOSUNNY   83  58  41 CALM      30.01F
6HR MIN TEMP:  66; 6HR MAX TEMP:  83;

ANN ARBOR      MOSUNNY   81  59  47 SW14      30.05F
BAD AXE        PTSUNNY   81  56  42 NW3       30.05F
CARO           MOSUNNY   85  61  44 W8        30.02F
DETROIT CITY   SUNNY     83  58  42 SW13G24   30.05F
6HR MIN TEMP:  68; 6HR MAX TEMP:  85;

DETROIT        PTSUNNY   84  58  40 S9G21     30.05F
6HR MIN TEMP:  65; 6HR MAX TEMP:  85;

FLINT          MOSUNNY   87  58  37 W5        30.03F
6HR MIN TEMP:  71; 6HR MAX TEMP:  87;

GROSSE ILE     SUNNY     79  61  53 SE8       30.05F
HILLSDALE      MOSUNNY   80  51  36 S10       30.06F
HOWELL         MOSUNNY   82  56  40 S9        30.04F

CITY           SKY/WX    TMP DP  RH WIND       PRES   REMARKS
JACKSON        PTSUNNY   80  58  46 S12       30.04F
6HR MIN TEMP:  69; 6HR MAX TEMP:  82;

LAMBERTVILLE   PTSUNNY   84  57  40 SW10G18   30.07S
6HR MIN TEMP:  66; 6HR MAX TEMP:  85;

LANSING        MOSUNNY   83  60  45 SW8       30.02F
6HR MIN TEMP:  69; 6HR MAX TEMP:  84;

LAPEER         FAIR      85  51  30 W8        30.03F
6HR MIN TEMP:  66; 6HR MAX TEMP:  85;

MASON          PTSUNNY   82  59  45 S10G21    30.03F
MONROE         CLOUDY    80  61  53 SE9       30.05F
6HR MIN TEMP:  66; 6HR MAX TEMP:  85;

MT. CLEMENS    MOSUNNY   85  54  34 S10G17    30.04F
6HR MIN TEMP:  70; 6HR MAX TEMP:  85;

PONTIAC        MOSUNNY   84  57  39 SW10      30.03F
6HR MIN TEMP:  68; 6HR MAX TEMP:  84;

PORT HOPE        N/A     58  53  84 SE9       30.06F
6HR MIN TEMP:  57; 6HR MAX TEMP:  66;

PORT HURON     SUNNY     84  57  39 S8G17     30.04F
TRI CITIES     MOSUNNY   85  60  42 SW12      30.01F
6HR MIN TEMP:  69; 6HR MAX TEMP:  86;

MIDLAND        PTSUNNY   84  59  42 SW8       30.00F
6HR MIN TEMP:  63; 6HR MAX TEMP:  85;

TROY           MOSUNNY   86  55  34 SW14      30.06F
SAGINAW HB     SUNNY     84  55  37 SW8       30.01F
$$
MIZ043>046-050>051-056>058-064>065-071>073-077>080-251900-
SOUTHWEST LOWER MICHIGAN

CITY           SKY/WX    TMP DP  RH WIND       PRES   REMARKS
BATTLE CREEK   PTSUNNY   82  60  47 S12       30.03F
6HR MIN TEMP:  67; 6HR MAX TEMP:  82;

BENTON HARBOR  MOSUNNY   79  62  56 W8        30.01S
6HR MIN TEMP:  68; 6HR MAX TEMP:  82;

BIG RAPIDS     PTSUNNY   81  62  53 SW8       30.00F
6HR MIN TEMP:  60; 6HR MAX TEMP:  82;

COLDWATER      PTSUNNY   80  58  46 S7G16     30.04S
6HR MIN TEMP:  66; 6HR MAX TEMP:  81;

FREMONT        FAIR      83  59  43 SW6       30.00S
HOLLAND        MOSUNNY   82  64  54 W13       30.01S
6HR MIN TEMP:  70; 6HR MAX TEMP:  84;

GRAND RAPIDS   MOSUNNY   87  61  41 S8        30.01F
6HR MIN TEMP:  69; 6HR MAX TEMP:  87;

IONIA          FAIR      85  54  34 S10       30.00F
6HR MIN TEMP:  68; 6HR MAX TEMP:  85;

KALAMAZOO      CLOUDY    82  58  43 S9G18     30.02F
6HR MIN TEMP:  67; 6HR MAX TEMP:  84;

LUDINGTON      MOSUNNY   72  57  60 SW9       30.01F
6HR MIN TEMP:  60; 6HR MAX TEMP:  73;

MARSHALL       MOSUNNY   83  59  43 S9        30.03F
6HR MIN TEMP:  67; 6HR MAX TEMP:  85;

MOUNT PLEASANT MOSUNNY   84  62  48 S7        30.00F
6HR MIN TEMP:  62; 6HR MAX TEMP:  84;

MUSKEGON       MOSUNNY   79  60  52 SW9       30.02S
6HR MIN TEMP:  67; 6HR MAX TEMP:  81;

SOUTH HAVEN    MOSUNNY   81  62  53 W8        30.01S
$$
MIZ016>042-251900-
NORTHERN LOWER MICHIGAN

CITY           SKY/WX    TMP DP  RH WIND       PRES   REMARKS
ALPENA         SUNNY     78  58  49 E10       30.05F
6HR MIN TEMP:  56; 6HR MAX TEMP:  78;

BEAVER ISLAND  CLOUDY    62  57  84 E10G17    30.07F
6HR MIN TEMP:  55; 6HR MAX TEMP:  62;

BELLAIRE       MOSUNNY   79  60  51 N6        30.01F
6HR MIN TEMP:  55; 6HR MAX TEMP:  79;

CADILLAC       MOSUNNY   84  55  36 SE5       30.01F
CHARLEVOIX     MOSUNNY   64  59  83 N12       30.07F
FRANKFORT      MOSUNNY   79  61  54 N10       30.00F
GAYLORD        PTSUNNY   80  57  45 CALM      30.04F
6HR MIN TEMP:  55; 6HR MAX TEMP:  80;

GRAYLING       SUNNY     84  53  34 SE5       30.02F
6HR MIN TEMP:  59; 6HR MAX TEMP:  84;

HARBOR SPRINGS CLOUDY    64  58  82 NE10      30.07S
HOUGHTON LAKE  PTSUNNY   83  55  38 NW6       30.02F
6HR MIN TEMP:  63; 6HR MAX TEMP:  83;

MANISTEE       MOSUNNY   75  57  53 NW9       30.01F
OSCODA         SUNNY     71  55  58 SE9       30.06S
6HR MIN TEMP:  63; 6HR MAX TEMP:  72;

PELLSTON       CLOUDY    62  56  80 NE8       30.08S
6HR MIN TEMP:  56; 6HR MAX TEMP:  62;

ROGERS CITY    SUNNY     59  54  82 N6        30.10S
TRAVERSE CITY  PTSUNNY   66  56  70 N8        30.02F
6HR MIN TEMP:  56; 6HR MAX TEMP:  70;

$$
MIZ007>008-015-251900-
EASTERN UPPER MICHIGAN

CITY           SKY/WX    TMP DP  RH WIND       PRES   REMARKS
KINROSS          N/A     66  55  68 E5        30.08F
6HR MIN TEMP:  55; 6HR MAX TEMP:  68;

MACKINAC ISLAN CLOUDY    61  60  99 E6        30.08F
6HR MIN TEMP:  55; 6HR MAX TEMP:  61;

NEWBERRY       MOSUNNY   64  58  79 E5        30.08F
6HR MIN TEMP:  52; 6HR MAX TEMP:  65;

S. S. MARIE    MOSUNNY   71  55  56 VRB6      30.07F
6HR MIN TEMP:  55; 6HR MAX TEMP:  71;

MUNISING         N/A     51  46  83 NE5       30.09F
6HR MIN TEMP:  45; 6HR MAX TEMP:  51;

$$
MIZ004>006-011>014-085-251900-
CENTRAL UPPER MICHIGAN

CITY           SKY/WX    TMP DP  RH WIND       PRES   REMARKS
MANISTIQUE     CLOUDY    60  58  92 SE5       30.08S
6HR MIN TEMP:  53; 6HR MAX TEMP:  60;

ESCANABA       MOSUNNY   64  55  72 SE10      30.05F
6HR MIN TEMP:  54; 6HR MAX TEMP:  64;

MENOMINEE      MOSUNNY   59  54  83 E14       30.05F
6HR MIN TEMP:  55; 6HR MAX TEMP:  61;

SAWYER-GWINN   CLOUDY    57  52  82 SE3       30.10R
$$
MIZ001>003-009>011-084-251900-
WESTERN UPPER MICHIGAN

CITY           SKY/WX    TMP DP  RH WIND       PRES   REMARKS
IRON MOUNTAIN  CLOUDY    66  56  70 VRB6      30.03F
6HR MIN TEMP:  54; 6HR MAX TEMP:  66;

HOUGHTON       MOSUNNY   54  47  77 E16       30.07F
6HR MIN TEMP:  47; 6HR MAX TEMP:  54;

COPPER HARBOR    N/A     57  48  72 VRB5      30.10S
6HR MIN TEMP:  43; 6HR MAX TEMP:  57;

IRONWOOD       CLOUDY    72  57  60 E10       29.97F
6HR MIN TEMP:  54; 6HR MAX TEMP:  72;

$$

ABBREVIATIONS USED IN REMARKS
   TC - TEMPERATURE IN CELSIUS
  WCI - WIND CHILL INDEX
   HX - HEAT INDEX
  VSB - VISIBILITY




USA.gov is the U.S. government's official web portal to all federal, state and local government web resources and services.